Flag for Poland Weather past 2 weeks in Bydgoszcz, Poland

Now
47 °F

Partly sunny.


Feels Like: 47 °F
Forecast: 46 / 69 °F
Wind: 1 mph from Northeast

Location: Torun


UV Index: 3 (Moderate)

Visibility: 11 mi


Pressure: 30.16 "Hg

Humidity: 92%

Dew point: 45 °F

Location of BydgoszczLocation

Historic Weather in Bydgoszcz

°F

Bydgoszcz temperature yesterday

Maximum temperature yesterday: 73 °F (at 3:00 PM)
Minimum temperature yesterday: 51 °F (at 3:00 AM)
Average temperature yesterday: 59 °F

Past Weeks' High & Low Weather Summary

 TemperatureHumidityPressure
High74 °F (Apr 19, 4:00 PM)100% (Apr 11, 4:00 AM)30.42 "Hg (Apr 11, 4:00 AM)
Low24 °F (Apr 17, 6:00 AM)29% (Apr 18, 5:00 PM)29.60 "Hg (Apr 14, 3:00 PM)
Average51 °F74%30.00 "Hg
* Reported Apr 9 5:00 AM — Apr 24 5:00 AM, Bydgoszcz, Weather by CustomWeather, © 2014

Note: Actual official high and low records may vary slightly from our data, if they occured in-between our weather recording intervals... More about our weather records

Advertising

Historic Weather Conditions — Data for Previous 24 hours

 ConditionsComfort  
Time TempWeatherWind HumidityBarometerVisibility
5:00 AM
Apr 24
47 °FPassing clouds.No wind91%30.16 "Hg12 mi
4:00 AM47 °FPassing clouds.1 mph90%30.16 "Hg12 mi
3:00 AM48 °FPassing clouds.1 mph90%30.16 "Hg12 mi
2:00 AM49 °FPassing clouds.1 mph88%30.16 "Hg13 mi
1:00 AM50 °FPassing clouds.1 mph86%30.16 "Hg14 mi
12:00 AM52 °FPassing clouds.1 mph82%30.16 "Hg16 mi
11:00 PM
Apr 23
54 °FOvercast.2 mph78%30.15 "Hg17 mi
10:00 PM57 °FOvercast.1 mph75%30.15 "Hg17 mi
9:00 PM59 °FOvercast.2 mph77%30.14 "Hg14 mi
8:00 PM60 °FSprinkles. Overcast.1 mph76%30.12 "Hg16 mi
7:00 PM62 °FSprinkles. Overcast.2 mph70%30.10 "Hg19 mi
6:00 PM60 °FLight rain. Overcast.1 mph75%30.11 "Hg19 mi
5:00 PM63 °FThundershowers. Overcast.3 mph63%30.10 "Hg28 mi
4:00 PM66 °FThunderstorms. Overcast.5 mph59%30.10 "Hg19 mi
3:00 PM73 °FPartly sunny.1 mph44%30.08 "Hg19 mi
2:00 PM72 °FScattered clouds.2 mph46%30.09 "Hg18 mi
1:00 PM70 °FScattered clouds.3 mph49%30.11 "Hg19 mi
12:00 PM71 °FScattered clouds.3 mph53%30.11 "Hg16 mi
11:00 AM68 °FScattered clouds.2 mph55%30.10 "Hg14 mi
10:00 AM64 °FScattered clouds.1 mph66%30.10 "Hg14 mi
9:00 AM57 °FPartly sunny.1 mph85%30.09 "Hg7 mi
8:00 AM54 °FFog.1 mph88%30.08 "Hg6 mi
7:00 AM52 °FFog.1 mph92%30.07 "Hg5 mi
Weather by CustomWeather, © 2014

See weather overview